Tracking 20083 objects as of 9-Dec-2019
HD Live streaming from Space Station
objects crossing your sky now

COSMOS 1275 DEB

Track COSMOS 1275 DEB now!
10-day predictions


NORAD ID: 13619
Int'l Code: 1981-053GQ
Perigee: 873.5 km
Apogee: 923.0 km
Inclination: 83.0 °
Period: 102.8 minutes
Semi major axis: 7269 km
RCS: 0.0428 m2 (small)
Launch date: June 4, 1981
Source: Commonwealth of Independent States (former USSR) (CIS)
Launch site: PLESETSK MISSILE AND SPACE COMPLEX (PKMTR)

Note: This is SATELLITE DEBRIS
aabbcc
Your satellite tracking list
Your tracking list is empty




NASA's NSSDC Master Catalog

Two Line Element Set (TLE):
1 13619U 81053GM  19342.83178441  .00000558  00000-0  36180-3 0  9991
2 13619  83.0344 135.4858 0034018 148.7632 342.9621 14.00770664889181
Source of the keplerian elements: AFSPC